Location: Kuffner-Sternwarte
(48.2130°N, 16.2960°E)
Time: 13:31:34
(UTC+01:00)

COROT - Visible Passes

Search period start: 12 December 2017 00:00
Search period end: 22 December 2017 00:00
Orbit: 602 x 887 km, 90.0° (Epoch: 11 December)

Date Brightness Start Highest point End Pass type
(mag) Time Alt. Az. Time Alt. Az. Time Alt. Az.
12 Dec 8.7 06:04:02 10° NNE 06:07:32 18° ENE 06:10:52 10° ESE visible
13 Dec 6.8 06:59:31 10° N 07:04:45 55° E 07:09:33 10° SSE visible
14 Dec 8.2 06:17:05 10° NNE 06:21:24 25° ENE 06:25:27 10° SE visible
15 Dec 8.9 05:35:53 10° NE 05:37:46 12° ENE 05:39:36 10° E visible
15 Dec9.118:40:55N18:40:55N18:25:49SSEvisible
15 Dec9.420:20:41N20:20:41N20:05:41SSWvisible
16 Dec 7.5 06:30:22 10° NNE 06:35:11 38° E 06:39:37 10° SSE visible
16 Dec9.017:57:40N17:57:40N17:43:55SEvisible
16 Dec8.819:37:27N19:37:27N19:23:47Svisible
17 Dec 8.6 05:48:18 10° NNE 05:51:42 18° ENE 05:54:55 10° ESE visible
17 Dec 8.3 18:41:11 10° SSE 18:54:09 - N 18:41:58 14° SSE visible
17 Dec9.020:33:55NNW20:33:55NNW20:21:51SWvisible
18 Dec 6.6 06:43:50 10° N 06:48:52 58° E 06:53:28 10° SSE visible
18 Dec 8.0 17:59:14 10° SE 18:10:47 - N 18:00:17 15° SE visible
18 Dec 8.0 19:37:54 10° SSW 19:50:32 - N 19:40:10 24° SSW visible
19 Dec 8.1 06:01:20 10° NNE 06:05:32 26° E 06:09:26 10° SE visible
19 Dec 8.1 17:18:31 10° ESE 17:27:19 - NNE 17:18:43 11° E visible
19 Dec 6.8 18:54:37 10° S 19:07:04 - N 18:58:37 46° S visible
19 Dec 8.9 20:37:02 10° WSW 20:46:48 - NNW 20:38:31 14° W visible
20 Dec 8.9 05:20:08 10° NE 05:21:54 12° ENE 05:23:39 10° E visible
20 Dec 5.9 06:57:24 10° N 07:02:26 90° E 07:07:02 10° S visible
20 Dec 6.5 18:12:12 10° SSE 18:23:21 - N 18:17:20 42° E visible
20 Dec 7.7 19:52:03 10° SW 19:57:14 33° W 19:57:16 33° W visible
21 Dec 7.3 06:14:37 10° NNE 06:19:16 39° E 06:23:32 10° SSE visible
21 Dec 7.3 17:30:43 10° ESE 17:34:57 22° ENE 17:39:06 10° NNE visible
21 Dec 6.5 19:08:18 10° S 19:14:04 67° W 19:19:38 10° N visible
21 Dec 9.1 20:53:07 10° W 20:54:38 11° WNW 20:56:09 10° NW visible
